METEOR 2-5 DEB, 40215

Orbit data source: Space-Track

METEOR 2-5 DEB, 40215 is space debris in LEO originally from a launch on Wed, 31 Oct 1979 UTC launched from the Plesetsk Missile And Space Complex (PKMTR). Debris objects in space refer to the collection of defunct objects orbiting the Earth. Examples of debris include non-operational satellites, rocket bodies, and fragments generated from explosions, collisions, or faulty payload assembly.

Loading next visibility...
Identifier
40215, 1979-095CN
Orbit
LEO
Country
Flag of CISCIS
Related business
Manufacturer
Unknown
Mission
Spacecraft
Bus & Motor
Unknown
Mass
Unknown
Launch date (UTC)
1979-10-31 (46 years ago)
Launch vehicle
Unknown
Launch site
Plesetsk Missile And Space Complex (PKMTR)
Object type
Payload
Rocket body
Debris
Shape & HBR
Unknown shape, 0.1 m
Radar Cross Section
Small (<0.1 m²)

Expand to show TLE details & history
Last TLE update: 2 days ago

TLE from 2 days ago
0 METEOR 2-5 DEB
1 40215U 79095CN  25353.27662658  .00004888  00000-0  16949-2 0  9991
2 40215  81.1844 336.9351 0005568 315.6145  44.4593 14.35505077  1859
Epoch: 2025-12-19T06:38Z
TLE epoch observation values (Epoch: 2025-12-19T06:38:20.536Z)
Latitude
-0°
Longitude
149.22943°
Altitude
773.479 km
Speed
7.469 km/s
True Right ascension
22h 27m 44s
True Declination
0° 00' 00"
Sunlit
Object was in daylight at epoch
Visualization orbit readout
Latitude
Unknown
Longitude
Unknown
Altitude
Unknown
Speed
Unknown
Apparent Right ascension
Unknown
Apparent Declination
Unknown
Sunlit
N/A
Visualization observer readout
Local Sidereal Time
21:37:15
Azimuth
Unknown
Elevation
Unknown
Doppler factor
Unknown
Orbital elements
Apogee altitude
774.512 km
Perigee altitude
766.551 km
Semi-major axis
7,148.668 km
Eccentricity
0.00056
Inclination
81.1844°
RAAN
336.9351°
Arg. of periapsis
315.6145°
True anomaly
44.50401°
Mean anomaly
44.4593°
Eccentric anomaly
44.48165°
Mean motion
3.59092 °/min
Orbital period
100.25 mins
BSTAR
0.0016949
Loading maneuver chart data...
Computing Atmospheric mass density...
Loading historical data...
Loading historical data...
Loading historical data...
Loading historical data...
Loading historical data...
Loading historical data...
Loading historical data...

Documentation

Showing up to 5 results
|